QPF
0.00 0.01 0.01 0.01 0.00 0.00 0.00 0.00 0.01 0.01 0.01 0.02 0.03 0.03 0.11 0.16 0.10 0.12 0.04 0.02 0.03 0.03 0.01 0.01 0.02 0.03 0.02 0.06 0.11 0.04 0.06 0.07 0.09 0.07 0.03 0.03 0.02 0.01 0.00 0.02 0.01 0.01 0.02 0.01 0.01 0.01 0.01 0.00 0.01 0.02 0.02 0.00 0.00 0.00
0.01 0.02 0.01 0.00 0.01 0.01 0.02 0.02 0.01 0.01 0.01 0.01 0.02 0.02 0.05 0.12 0.15 0.18 0.15 0.04 0.04 0.04 0.02 0.01 0.01 0.01 0.03 0.04 0.06 0.06 0.01 0.02 0.01 0.03 0.03 0.04 0.03 0.02 0.01 0.01 0.01 0.03 0.00 0.02 0.01 0.00 0.00 0.01 0.01 0.01 0.00 0.00 0.00 0.00
0.02 0.01 0.00 0.00 0.00 0.00 0.00 0.01 0.01 0.00 0.00 0.00 0.01 0.02 0.04 0.06 0.10 0.19 0.19 0.03 0.07 0.09 0.04 0.01 0.00 0.00 0.00 0.02 0.03 0.04 0.02 0.04 0.05 0.03 0.06 0.05 0.03 0.01 0.01 0.00 0.00 0.00 0.00 0.03 0.05 0.02 0.01 0.01 0.01 0.00 0.00 0.00 0.00 0.00
0.00 0.00 0.00 0.00 0.00 0.01 0.01 0.01 0.01 0.01 0.01 0.01 0.01 0.02 0.05 0.04 0.06 0.16 0.14 0.02 0.06 0.10 0.05 0.01 0.00 0.00 0.01 0.01 0.02 0.01 0.03 0.05 0.06 0.06 0.05 0.05 0.02 0.00 0.01 0.00 0.00 0.00 0.00 0.00 0.00 0.01 0.00 0.01 0.00 0.00 0.00 0.00 0.00 0.00
0.00 0.00 0.00 0.00 0.00 0.00 0.00 0.00 0.00 0.01 0.01 0.01 0.01 0.05 0.07 0.05 0.07 0.16 0.11 0.02 0.02 0.04 0.04 0.01 0.01 0.00 0.02 0.05 0.05 0.04 0.04 0.08 0.10 0.08 0.04 0.03 0.03 0.02 0.02 0.02 0.00 0.01 0.01 0.01 0.02 0.01 0.00 0.01 0.00 0.00 0.00 0.00 0.00 0.00
0.00 0.00 0.00 0.00 0.00 0.01 0.01 0.01 0.01 0.01 0.02 0.02 0.03 0.09 0.10 0.09 0.18 0.23 0.26 0.11 0.01 0.05 0.07 0.07 0.02 0.00 0.00 0.01 0.03 0.03 0.05 0.11 0.13 0.10 0.07 0.04 0.04 0.05 0.05 0.03 0.02 0.01 0.00 0.00 0.00 0.00 0.00 0.00 0.00 0.00 0.00 0.00 0.00 0.00
0.00 0.00 0.00 0.00 0.00 0.01 0.01 0.00 0.01 0.01 0.02 0.04 0.10 0.13 0.11 0.13 0.13 0.08 0.10 0.08 0.02 0.05 0.07 0.06 0.03 0.01 0.01 0.02 0.03 0.05 0.11 0.13 0.08 0.05 0.03 0.06 0.05 0.04 0.04 0.04 0.01 0.00 0.00 0.00 0.00 0.00 0.00 0.00 0.00 0.00 0.00 0.00 0.00 0.00
0.00 0.00 0.00 0.00 0.00 0.01 0.01 0.00 0.00 0.01 0.07 0.14 0.18 0.11 0.14 0.17 0.15 0.06 0.01 0.00 0.01 0.07 0.05 0.03 0.03 0.04 0.02 0.02 0.03 0.04 0.16 0.15 0.13 0.09 0.02 0.04 0.07 0.07 0.07 0.02 0.00 0.00 0.00 0.00 0.00 0.00 0.00 0.00 0.00 0.00 0.00 0.00 0.00 0.00
0.00 0.00 0.00 0.00 0.00 0.01 0.00 0.01 0.05 0.17 0.20 0.17 0.14 0.18 0.24 0.17 0.13 0.04 0.02 0.02 0.03 0.05 0.04 0.01 0.02 0.03 0.01 0.03 0.03 0.02 0.07 0.12 0.07 0.05 0.02 0.03 0.05 0.07 0.04 0.00 0.00 0.00 0.00 0.00 0.00 0.00 0.00 0.00 0.00 0.00 0.00 0.00 0.00 0.00
0.00 0.01 0.01 0.01 0.01 0.04 0.08 0.11 0.17 0.15 0.11 0.08 0.09 0.12 0.20 0.07 0.02 0.05 0.07 0.09 0.09 0.03 0.01 0.01 0.03 0.01 0.02 0.02 0.02 0.02 0.01 0.03 0.04 0.03 0.03 0.05 0.05 0.02 0.00 0.00 0.00 0.00 0.00 0.00 0.00 0.00 0.00 0.00 0.00 0.00 0.00 0.00 0.00 0.00
0.01 0.02 0.02 0.03 0.04 0.06 0.09 0.09 0.06 0.02 0.01 0.02 0.04 0.12 0.13 0.04 0.02 0.02 0.03 0.02 0.01 0.01 0.00 0.01 0.01 0.01 0.00 0.03 0.02 0.03 0.06 0.06 0.08 0.07 0.08 0.07 0.03 0.01 0.00 0.00 0.00 0.00 0.00 0.00 0.00 0.00 0.00 0.00 0.00 0.00 0.00 0.00 0.00 0.00
0.02 0.00 0.01 0.04 0.05 0.05 0.04 0.01 0.00 0.01 0.02 0.01 0.04 0.08 0.05 0.04 0.03 0.02 0.02 0.02 0.02 0.02 0.01 0.01 0.00 0.01 0.02 0.06 0.07 0.07 0.12 0.07 0.08 0.06 0.08 0.03 0.01 0.00 0.00 0.00 0.00 0.00 0.00 0.00 0.00 0.00 0.00 0.00 0.00 0.00 0.00 0.00 0.00 0.01
0.02 0.00 0.00 0.01 0.02 0.02 0.01 0.01 0.01 0.00 0.00 0.00 0.00 0.00 0.01 0.00 0.00 0.01 0.01 0.01 0.01 0.01 0.01 0.02 0.03 0.04 0.05 0.04 0.03 0.03 0.04 0.05 0.01 0.02 0.03 0.01 0.00 0.00 0.00 0.00 0.00 0.00 0.00 0.00 0.00 0.00 0.00 0.00 0.01 0.01 0.01 0.01 0.01 0.01
0.03 0.00 0.00 0.00 0.00 0.00 0.00 0.00 0.00 0.00 0.00 0.00 0.00 0.00 0.00 0.00 0.00 0.00 0.01 0.00 0.00 0.01 0.01 0.02 0.01 0.04 0.01 0.01 0.02 0.00 0.00 0.00 0.01 0.01 0.01 0.01 0.01 0.00 0.00 0.00 0.00 0.00 0.00 0.00 0.01 0.01 0.01 0.01 0.01 0.02 0.02 0.03 0.02 0.02
0.01 0.00 0.00 0.00 0.00 0.00 0.00 0.00 0.00 0.00 0.00 0.00 0.00 0.00 0.00 0.01 0.01 0.01 0.00 0.01 0.01 0.01 0.01 0.01 0.00 0.01 0.00 0.00 0.00 0.00 0.00 0.00 0.01 0.01 0.01 0.01 0.01 0.01 0.01 0.01 0.01 0.01 0.01 0.01 0.01 0.01 0.02 0.03 0.03 0.03 0.04 0.04 0.03 0.03
0.00 0.00 0.00 0.00 0.00 0.00 0.00 0.00 0.00 0.00 0.00 0.00 0.00 0.01 0.01 0.01 0.01 0.01 0.01 0.01 0.01 0.00 0.00 0.00 0.00 0.00 0.00 0.00 0.00 0.00 0.00 0.00 0.01 0.01 0.01 0.01 0.01 0.00 0.00 0.00 0.01 0.01 0.01 0.01 0.02 0.02 0.02 0.03 0.03 0.04 0.04 0.04 0.04 0.04
0.00 0.00 0.00 0.00 0.00 0.00 0.00 0.00 0.00 0.00 0.00 0.00 0.00 0.01 0.01 0.01 0.01 0.01 0.01 0.01 0.01 0.00 0.00 0.00 0.00 0.00 0.00 0.00 0.00 0.00 0.01 0.02 0.01 0.01 0.01 0.00 0.00 0.00 0.01 0.01 0.01 0.01 0.01 0.02 0.02 0.02 0.03 0.03 0.03 0.03 0.03 0.04 0.04 0.04
0.00 0.00 0.00 0.00 0.00 0.00 0.00 0.00 0.00 0.00 0.00 0.00 0.01 0.01 0.00 0.01 0.01 0.01 0.01 0.00 0.00 0.00 0.00 0.00 0.00 0.00 0.00 0.01 0.01 0.01 0.01 0.01 0.01 0.01 0.01 0.00 0.00 0.00 0.00 0.00 0.01 0.01 0.01 0.02 0.02 0.02 0.02 0.03 0.03 0.03 0.03 0.03 0.02 0.01
0.00 0.00 0.00 0.00 0.00 0.00 0.00 0.00 0.00 0.00 0.00 0.00 0.00 0.00 0.00 0.00 0.00 0.00 0.00 0.00 0.00 0.00 0.00 0.00 0.00 0.00 0.01 0.01 0.01 0.01 0.01 0.00 0.00 0.00 0.00 0.00 0.00 0.00 0.00 0.00 0.01 0.01 0.01 0.01 0.01 0.01 0.02 0.02 0.02 0.02 0.01 0.01 0.00 0.00
0.00 0.00 0.00 0.00 0.00 0.00 0.00 0.00 0.00 0.00 0.00 0.00 0.00 0.00 0.00 0.00 0.00 0.00 0.00 0.00 0.00 0.00 0.00 0.00 0.01 0.02 0.01 0.01 0.01 0.01 0.00 0.00 0.00 0.00 0.01 0.00 0.00 0.00 0.01 0.01 0.01 0.01 0.01 0.01 0.01 0.02 0.01 0.01 0.00 0.00 0.00 0.00 0.00 0.00
0.00 0.00 0.00 0.00 0.00 0.00 0.00 0.00 0.00 0.00 0.00 0.00 0.00 0.00 0.00 0.00 0.00 0.00 0.00 0.00 0.00 0.00 0.01 0.01 0.01 0.01 0.01 0.01 0.01 0.00 0.00 0.00 0.00 0.00 0.00 0.00 0.00 0.00 0.00 0.01 0.01 0.01 0.01 0.01 0.01 0.00 0.00 0.00 0.00 0.00 0.00 0.00 0.00 0.00
0.00 0.00 0.00 0.00 0.00 0.00 0.00 0.00 0.00 0.00 0.00 0.00 0.00 0.00 0.00 0.00 0.00 0.00 0.00 0.00 0.01 0.01 0.01 0.01 0.01 0.00 0.00 0.00 0.00 0.00 0.00 0.00 0.00 0.00 0.00 0.00 0.00 0.00 0.00 0.00 0.00 0.00 0.00 0.00 0.00 0.00 0.00 0.00 0.00 0.00 0.00 0.00 0.00 0.00
0.00 0.00 0.00 0.00 0.00 0.00 0.00 0.00 0.00 0.00 0.00 0.00 0.00 0.00 0.00 0.00 0.00 0.00 0.00 0.00 0.01 0.01 0.00 0.00 0.00 0.00 0.00 0.00 0.00 0.00 0.00 0.00 0.00 0.00 0.00 0.00 0.00 0.00 0.00 0.00 0.00 0.00 0.00 0.00 0.00 0.00 0.00 0.00 0.00 0.00 0.00 0.00 0.00 0.00
0.00 0.00 0.00 0.00 0.00 0.00 0.00 0.00 0.00 0.00 0.00 0.00 0.00 0.00 0.00 0.00 0.00 0.00 0.00 0.00 0.00 0.00 0.00 0.00 0.00 0.00 0.00 0.00 0.00 0.00 0.00 0.00 0.00 0.00 0.00 0.00 0.00 0.00 0.00 0.00 0.00 0.00 0.00 0.00 0.00 0.00 0.00 0.00 0.00 0.00 0.00 0.00 0.00 0.00
0.00 0.00 0.00 0.00 0.00 0.00 0.00 0.00 0.00 0.00 0.00 0.00 0.00 0.00 0.00 0.00 0.00 0.00 0.00 0.00 0.00 0.00 0.00 0.00 0.00 0.00 0.00 0.00 0.00 0.00 0.00 0.00 0.00 0.00 0.00 0.00 0.00 0.00 0.00 0.00 0.00 0.00 0.00 0.00 0.00 0.00 0.00 0.00 0.00 0.00 0.00 0.00 0.00 0.00
0.00 0.00 0.00 0.00 0.00 0.00 0.00 0.00 0.00 0.00 0.00 0.00 0.00 0.00 0.00 0.00 0.00 0.00 0.00 0.00 0.00 0.00 0.00 0.00 0.00 0.00 0.00 0.00 0.00 0.00 0.00 0.00 0.00 0.00 0.00 0.00 0.00 0.00 0.00 0.00 0.00 0.00 0.00 0.00 0.00 0.00 0.00 0.00 0.00 0.00 0.00 0.00 0.00 0.00
0.00 0.00 0.00 0.00 0.00 0.00 0.00 0.00 0.00 0.00 0.00 0.00 0.00 0.00 0.00 0.00 0.00 0.00 0.00 0.00 0.00 0.00 0.00 0.00 0.00 0.00 0.00 0.00 0.00 0.00 0.00 0.00 0.00 0.00 0.00 0.00 0.00 0.00 0.00 0.00 0.00 0.00 0.00 0.00 0.00 0.00 0.00 0.00 0.00 0.00 0.00 0.00 0.00 0.00
0.00 0.00 0.00 0.00 0.00 0.00 0.00 0.00 0.00 0.00 0.00 0.00 0.00 0.00 0.00 0.00 0.00 0.01 0.00 0.00 0.00 0.00 0.00 0.00 0.00 0.00 0.00 0.00 0.00 0.00 0.00 0.00 0.00 0.00 0.00 0.00 0.00 0.00 0.00 0.00 0.00 0.00 0.00 0.00 0.00 0.00 0.00 0.00 0.00 0.00 0.00 0.00 0.00 0.00
0.00 0.00 0.00 0.00 0.00 0.00 0.00 0.00 0.00 0.00 0.00 0.00 0.00 0.00 0.00 0.00 0.01 0.01 0.00 0.00 0.00 0.00 0.00 0.00 0.00 0.00 0.00 0.00 0.00 0.00 0.00 0.00 0.00 0.00 0.00 0.00 0.00 0.00 0.00 0.00 0.00 0.00 0.00 0.00 0.00 0.00 0.00 0.00 0.00 0.00 0.00 0.00 0.00 0.00
0.00 0.00 0.00 0.00 0.00 0.00 0.01 0.00 0.00 0.00 0.00 0.00 0.00 0.00 0.00 0.01 0.02 0.01 0.00 0.00 0.00 0.00 0.00 0.00 0.00 0.00 0.00 0.00 0.00 0.00 0.00 0.00 0.00 0.00 0.00 0.00 0.00 0.00 0.00 0.00 0.00 0.00 0.00 0.00 0.00 0.00 0.00 0.00 0.00 0.00 0.00 0.00 0.00 0.00
0.00 0.00 0.00 0.00 0.00 0.01 0.01 0.01 0.00 0.00 0.00 0.00 0.00 0.00 0.01 0.01 0.01 0.01 0.00 0.00 0.00 0.00 0.00 0.00 0.00 0.00 0.00 0.00 0.00 0.00 0.00 0.00 0.00 0.00 0.00 0.00 0.00 0.00 0.00 0.00 0.00 0.00 0.00 0.00 0.00 0.00 0.00 0.00 0.00 0.00 0.00 0.00 0.00 0.00
0.00 0.00 0.00 0.00 0.00 0.00 0.01 0.00 0.00 0.00 0.00 0.00 0.00 0.00 0.00 0.00 0.00 0.00 0.00 0.00 0.00 0.00 0.00 0.00 0.00 0.00 0.00 0.00 0.00 0.00 0.00 0.00 0.00 0.00 0.00 0.00 0.00 0.00 0.00 0.00 0.00 0.00 0.00 0.00 0.00 0.00 0.00 0.00 0.00 0.00 0.00 0.00 0.00 0.00
0.00 0.00 0.00 0.00 0.00 0.00 0.00 0.00 0.00 0.00 0.00 0.00 0.00 0.00 0.00 0.00 0.00 0.00 0.00 0.00 0.01 0.00 0.00 0.00 0.00 0.00 0.00 0.00 0.00 0.00 0.00 0.00 0.00 0.00 0.00 0.00 0.00 0.00 0.00 0.00 0.00 0.00 0.00 0.00 0.00 0.00 0.00 0.00 0.00 0.00 0.00 0.00 0.00 0.00
MSLP
1006.82 1006.13 1005.41 1004.78 1004.18 1003.75 1003.39 1003.18 1003.13 1003.16 1003.27 1003.52 1003.76 1004.44 1005.25 1006.17 1007.30 1008.59 1009.06 1009.49 1010.17 1009.91 1009.18 1008.52 1008.10 1007.77 1007.08 1008.24 1008.72 1008.89 1010.01 1010.60 1010.81 1009.89 1008.26 1006.47 1005.22 1004.27 1003.48 1002.93 1003.64 1004.43 1005.19 1005.14 1004.93 1003.94 1002.57 1001.49 1001.24 1001.60 1002.48 1002.45 1002.36 1002.37
1005.60 1004.81 1004.09 1003.46 1002.87 1002.45 1002.07 1001.76 1001.72 1001.71 1001.84 1002.12 1002.52 1003.10 1003.88 1004.85 1005.92 1007.45 1008.54 1009.23 1009.89 1010.23 1009.28 1008.99 1008.54 1008.14 1007.68 1007.87 1008.85 1009.09 1008.42 1009.11 1008.84 1008.35 1007.25 1006.15 1005.42 1004.34 1003.57 1003.02 1003.06 1004.02 1003.53 1003.31 1003.51 1002.72 1002.24 1002.53 1003.02 1003.51 1003.71 1003.45 1003.34 1003.30
1004.40 1003.65 1003.00 1002.38 1001.86 1001.42 1001.01 1000.70 1000.57 1000.55 1000.72 1001.02 1001.43 1001.88 1002.55 1003.58 1004.57 1006.12 1007.54 1008.48 1009.80 1010.23 1009.91 1008.97 1008.31 1008.24 1007.84 1007.98 1008.48 1008.93 1008.96 1008.55 1008.65 1007.43 1007.62 1006.77 1005.66 1004.20 1003.70 1003.14 1003.32 1002.65 1003.58 1003.36 1003.91 1002.75 1002.64 1003.50 1004.03 1004.14 1004.50 1004.43 1004.44 1004.44
1003.32 1002.60 1001.99 1001.43 1000.89 1000.28 999.72 999.32 999.17 999.24 999.52 999.88 1000.40 1000.94 1001.60 1002.63 1003.77 1005.32 1006.53 1007.47 1008.91 1009.51 1009.11 1007.14 1006.95 1007.69 1007.76 1007.85 1008.03 1008.42 1008.87 1009.30 1008.78 1008.55 1007.52 1006.69 1005.67 1004.42 1003.75 1003.57 1003.72 1002.92 1003.63 1003.05 1003.25 1003.58 1003.17 1003.30 1004.63 1005.61 1005.76 1005.58 1005.71 1005.73
1002.39 1001.83 1001.24 1000.53 999.74 998.90 998.14 997.63 997.57 997.87 998.22 998.70 999.37 1000.08 1000.88 1002.10 1003.31 1004.88 1006.28 1006.92 1007.62 1007.28 1007.08 1006.53 1006.52 1006.31 1006.88 1007.75 1007.87 1008.66 1009.23 1009.50 1009.01 1008.78 1007.97 1006.66 1005.68 1005.31 1004.40 1004.60 1004.19 1003.51 1004.01 1004.10 1004.79 1005.62 1005.46 1005.21 1006.13 1006.75 1006.57 1006.92 1007.17 1007.13
1001.89 1001.28 1000.46 999.54 998.54 997.33 995.92 995.22 995.78 996.54 997.15 997.83 998.57 999.15 1000.33 1001.60 1003.32 1004.84 1006.04 1007.13 1006.83 1007.18 1007.15 1006.11 1005.53 1005.87 1006.49 1007.23 1007.76 1008.39 1008.85 1009.10 1009.12 1008.98 1008.32 1006.76 1005.91 1006.00 1005.50 1005.51 1006.62 1006.52 1006.79 1007.14 1007.45 1007.71 1007.38 1007.28 1008.06 1008.65 1008.73 1008.68 1008.79 1008.76
1001.45 1000.72 999.94 998.83 997.68 996.29 994.79 994.32 995.17 995.98 996.57 997.45 998.41 999.17 1000.19 1001.83 1003.17 1004.10 1004.32 1004.60 1006.24 1007.44 1007.34 1006.56 1005.55 1005.28 1006.03 1006.96 1007.68 1008.08 1008.21 1008.75 1009.15 1008.81 1008.07 1006.89 1006.56 1006.47 1006.58 1007.20 1008.51 1008.65 1008.67 1008.74 1009.07 1008.91 1008.27 1008.95 1009.63 1010.22 1010.40 1010.38 1010.25 1010.54
1001.13 1000.41 999.47 998.45 997.31 996.34 995.78 995.48 995.59 996.15 996.96 998.07 999.15 1000.27 1001.43 1002.70 1003.85 1004.12 1004.30 1004.67 1006.09 1007.36 1007.33 1006.45 1005.55 1005.68 1005.97 1006.43 1007.20 1007.84 1008.31 1008.65 1008.74 1008.61 1007.94 1006.90 1006.78 1007.31 1008.04 1009.82 1010.19 1010.37 1010.05 1010.01 1010.37 1010.48 1010.48 1010.69 1010.72 1010.71 1010.84 1010.98 1011.05 1011.59
1000.98 1000.23 999.30 998.33 997.40 996.67 996.39 996.36 996.43 996.92 997.97 999.27 1000.37 1001.32 1002.22 1002.91 1003.63 1004.47 1005.16 1005.68 1006.05 1006.73 1006.14 1005.89 1005.29 1005.46 1005.90 1006.40 1007.32 1007.66 1008.28 1008.33 1008.44 1008.27 1007.73 1007.43 1007.38 1009.21 1011.25 1011.50 1011.74 1012.11 1012.01 1011.81 1011.65 1011.27 1011.31 1011.51 1011.52 1011.60 1011.67 1011.85 1012.03 1012.65
1001.06 1000.41 999.56 998.59 997.68 997.35 997.23 997.68 998.13 998.69 999.54 1000.62 1001.21 1002.05 1002.69 1002.92 1003.87 1004.91 1005.98 1006.18 1006.36 1005.98 1005.44 1005.37 1005.26 1005.85 1006.09 1006.58 1007.07 1007.86 1008.02 1007.84 1007.91 1008.01 1007.56 1008.18 1010.48 1012.51 1013.01 1013.20 1013.25 1013.29 1013.19 1013.04 1012.69 1012.47 1012.75 1012.77 1012.84 1012.92 1013.22 1013.57 1013.83 1014.14
1001.25 1000.81 1000.18 999.64 998.67 998.64 999.12 999.47 999.83 1000.08 1000.08 1000.53 1001.28 1002.29 1003.58 1003.73 1003.99 1004.51 1005.49 1005.51 1005.90 1005.82 1005.41 1005.44 1005.68 1006.01 1006.91 1006.94 1006.97 1007.21 1007.44 1007.37 1007.41 1008.07 1008.30 1009.14 1011.43 1013.36 1013.99 1014.23 1014.35 1014.32 1014.28 1014.24 1014.35 1014.23 1014.37 1014.40 1014.26 1014.20 1014.45 1014.92 1015.35 1015.64
1001.54 1001.25 1000.93 1000.79 1000.77 1000.72 1000.88 1001.17 1001.21 1000.72 1000.81 1000.95 1002.12 1003.54 1004.23 1004.55 1004.29 1004.43 1004.98 1005.48 1005.24 1005.64 1006.24 1006.26 1006.57 1006.86 1007.15 1007.32 1006.96 1007.59 1007.39 1007.49 1007.53 1008.49 1008.86 1010.61 1013.68 1014.53 1014.84 1015.08 1015.35 1015.43 1015.39 1015.32 1015.45 1015.49 1015.57 1015.65 1015.74 1015.84 1016.10 1016.53 1016.92 1017.26
1001.84 1001.71 1001.62 1001.62 1001.59 1001.62 1001.41 1001.38 1001.29 1001.63 1001.49 1001.93 1002.73 1004.42 1004.28 1005.09 1004.92 1004.82 1005.41 1005.71 1006.08 1006.51 1006.72 1007.01 1007.22 1007.23 1007.52 1007.36 1007.05 1007.20 1007.36 1008.02 1008.42 1008.93 1010.79 1013.32 1014.94 1015.84 1016.28 1016.32 1016.55 1016.88 1016.83 1016.70 1016.80 1016.90 1017.02 1017.27 1017.36 1017.40 1017.70 1018.06 1018.32 1018.62
1002.24 1002.22 1002.21 1002.33 1002.37 1002.33 1002.31 1002.33 1002.14 1002.15 1002.03 1003.00 1004.10 1005.55 1005.98 1006.39 1006.86 1007.11 1006.98 1007.10 1007.83 1007.56 1007.33 1007.15 1007.12 1007.19 1007.29 1007.56 1007.87 1008.01 1009.11 1009.04 1009.54 1010.52 1012.81 1014.99 1016.39 1017.01 1017.32 1017.55 1017.87 1018.18 1018.24 1018.26 1018.38 1018.54 1018.71 1018.88 1019.08 1019.24 1019.34 1019.65 1019.85 1020.12
1002.57 1002.48 1002.63 1003.10 1003.11 1003.04 1002.90 1002.88 1002.67 1002.60 1003.75 1005.05 1005.65 1006.86 1007.87 1008.62 1008.81 1008.93 1008.86 1008.51 1008.86 1008.56 1008.02 1007.47 1007.27 1007.57 1008.04 1008.49 1009.00 1009.37 1009.86 1010.53 1011.62 1013.12 1015.02 1016.61 1017.56 1018.10 1018.62 1018.89 1018.97 1019.08 1019.18 1019.28 1019.51 1019.72 1020.02 1020.21 1020.34 1020.56 1020.82 1021.02 1021.32 1021.53
1002.78 1002.66 1003.05 1003.29 1003.45 1003.43 1003.16 1002.74 1003.03 1004.14 1005.96 1007.26 1008.42 1008.74 1009.19 1008.95 1009.45 1009.54 1009.47 1009.48 1009.78 1009.24 1008.40 1007.64 1007.79 1008.29 1009.28 1009.69 1010.17 1010.99 1011.32 1012.61 1014.51 1016.03 1017.17 1018.05 1018.91 1019.38 1019.66 1019.85 1019.91 1020.01 1020.11 1020.32 1020.53 1020.80 1021.06 1021.25 1021.48 1021.83 1022.14 1022.35 1022.53 1022.72
1002.68 1002.90 1003.56 1003.33 1003.31 1003.37 1003.22 1003.59 1004.89 1006.45 1007.84 1008.92 1010.29 1010.73 1010.44 1010.63 1010.90 1010.93 1010.80 1010.62 1010.40 1009.46 1008.91 1008.48 1008.77 1009.86 1010.39 1011.03 1012.43 1013.68 1014.65 1015.92 1017.05 1018.12 1018.92 1019.48 1019.78 1020.14 1020.38 1020.55 1020.67 1020.72 1020.86 1021.10 1021.36 1021.59 1021.81 1022.14 1022.38 1022.55 1022.80 1023.29 1023.47 1023.71
1002.44 1003.26 1003.59 1003.67 1003.44 1003.70 1004.53 1005.21 1006.50 1007.97 1009.66 1010.62 1011.01 1011.67 1011.86 1011.93 1011.87 1011.87 1011.76 1011.29 1010.55 1010.09 1010.14 1010.76 1010.95 1011.60 1012.54 1013.33 1014.70 1016.49 1017.32 1018.11 1018.75 1019.25 1019.80 1020.28 1020.57 1020.72 1020.81 1021.00 1021.24 1021.37 1021.60 1021.86 1022.04 1022.25 1022.44 1022.60 1022.75 1023.07 1023.42 1023.76 1023.93 1024.12
1002.79 1002.88 1003.30 1003.71 1003.78 1003.95 1005.22 1006.69 1007.08 1008.80 1010.71 1011.44 1011.91 1012.11 1012.28 1012.51 1012.66 1012.61 1012.41 1012.12 1011.84 1011.50 1011.63 1012.29 1013.34 1014.35 1015.49 1016.26 1016.89 1017.65 1018.29 1018.76 1019.39 1020.10 1020.77 1021.22 1021.37 1021.53 1021.66 1021.81 1021.91 1022.05 1022.22 1022.39 1022.61 1022.91 1023.23 1023.36 1023.40 1023.47 1023.62 1023.78 1023.97 1024.40
1003.38 1003.67 1003.97 1004.04 1003.95 1004.38 1005.99 1007.34 1007.64 1008.72 1010.26 1011.54 1011.78 1011.95 1012.44 1012.86 1013.21 1013.28 1013.12 1012.79 1012.48 1012.72 1013.98 1015.27 1016.57 1017.40 1017.74 1018.16 1018.39 1018.83 1019.37 1019.64 1019.79 1020.22 1020.91 1021.51 1021.86 1022.00 1022.07 1022.03 1022.21 1022.46 1022.67 1022.98 1023.18 1023.34 1023.55 1023.82 1024.03 1024.12 1024.14 1024.30 1024.51 1025.05
1003.47 1004.16 1004.14 1003.84 1004.30 1005.27 1006.63 1007.49 1008.34 1009.34 1010.37 1011.11 1011.56 1011.85 1012.70 1013.07 1013.29 1013.50 1013.52 1013.56 1013.93 1015.42 1016.99 1018.18 1018.90 1019.58 1019.89 1019.81 1019.81 1019.97 1020.20 1020.06 1020.20 1020.30 1020.98 1021.67 1022.25 1022.31 1022.51 1022.70 1022.80 1022.80 1022.93 1023.22 1023.49 1023.95 1024.06 1024.26 1024.60 1024.87 1025.11 1025.46 1025.82 1026.24
1003.47 1003.97 1003.87 1004.15 1005.11 1006.41 1007.51 1007.96 1008.37 1009.24 1010.13 1010.99 1011.60 1011.93 1012.49 1013.03 1013.52 1014.25 1014.48 1015.17 1017.25 1018.56 1018.78 1019.27 1019.73 1020.07 1020.59 1020.99 1021.26 1021.37 1021.56 1021.52 1021.72 1021.92 1022.18 1022.42 1022.43 1022.71 1023.05 1023.21 1023.22 1023.48 1023.71 1023.91 1024.12 1024.51 1024.90 1025.19 1025.40 1025.62 1025.86 1026.15 1026.24 1026.58
1003.85 1003.83 1004.21 1004.86 1006.03 1007.20 1008.98 1008.80 1008.71 1009.17 1010.03 1011.02 1011.55 1012.13 1012.88 1013.44 1014.28 1014.57 1015.72 1017.58 1019.29 1019.97 1020.13 1020.38 1020.73 1020.97 1021.37 1021.79 1022.00 1022.15 1022.13 1022.01 1022.23 1022.59 1022.83 1023.06 1023.29 1023.52 1023.64 1023.81 1023.86 1023.98 1024.21 1024.63 1024.90 1025.35 1025.95 1026.34 1026.48 1026.39 1026.58 1026.61 1026.87 1027.25
1004.57 1005.26 1005.60 1005.93 1006.76 1008.12 1008.80 1008.83 1008.98 1009.48 1010.38 1011.03 1011.73 1012.60 1013.31 1013.91 1014.71 1015.15 1016.63 1018.34 1019.74 1020.26 1020.58 1020.87 1020.89 1021.15 1021.50 1021.67 1021.90 1022.43 1022.61 1022.65 1022.89 1023.26 1023.47 1023.48 1023.72 1024.16 1024.41 1024.66 1024.97 1025.15 1025.16 1025.35 1025.64 1026.01 1026.39 1026.81 1026.98 1026.91 1027.10 1027.12 1027.26 1027.27
1005.21 1007.56 1007.16 1007.39 1007.64 1008.04 1008.62 1009.09 1009.51 1009.94 1010.66 1011.58 1012.36 1013.22 1014.00 1014.35 1014.72 1015.82 1017.01 1018.78 1019.65 1020.12 1020.58 1020.78 1020.85 1020.81 1021.16 1021.94 1022.57 1023.21 1023.50 1023.19 1023.20 1023.64 1024.22 1024.29 1024.45 1024.63 1024.92 1025.31 1025.71 1026.04 1026.06 1025.96 1026.16 1026.47 1026.85 1027.08 1027.20 1027.31 1027.37 1027.42 1027.63 1027.78
1006.84 1008.56 1008.37 1008.12 1008.34 1008.19 1008.70 1009.22 1009.66 1010.28 1011.09 1012.08 1013.16 1014.05 1014.32 1014.50 1015.34 1016.70 1017.53 1018.63 1019.58 1020.38 1020.86 1021.00 1021.11 1021.44 1021.85 1022.27 1022.75 1023.38 1024.06 1024.30 1024.22 1024.28 1025.00 1025.15 1025.16 1025.01 1025.12 1025.44 1025.71 1026.25 1026.81 1026.70 1026.68 1026.74 1027.12 1027.40 1027.52 1027.76 1027.82 1028.13 1028.42 1028.17
1008.16 1009.22 1009.72 1010.09 1009.35 1009.32 1009.83 1010.40 1010.56 1010.95 1011.63 1012.50 1013.43 1014.19 1014.55 1015.41 1016.78 1018.37 1019.15 1019.57 1020.08 1020.85 1021.26 1021.61 1021.68 1021.81 1022.46 1023.37 1024.18 1024.73 1025.06 1025.29 1025.31 1025.52 1025.96 1026.16 1026.30 1026.34 1026.19 1026.16 1026.61 1027.05 1027.45 1027.55 1027.49 1027.30 1027.32 1027.67 1027.80 1027.94 1027.95 1028.01 1028.11 1028.34
1009.91 1010.38 1010.70 1011.37 1011.18 1011.08 1011.29 1011.80 1012.24 1012.78 1013.31 1013.70 1014.02 1015.05 1015.89 1016.95 1018.31 1019.41 1020.01 1020.89 1021.31 1021.81 1022.30 1022.65 1022.87 1023.18 1023.70 1024.40 1024.97 1025.40 1025.94 1026.42 1026.64 1026.56 1026.65 1026.81 1027.05 1027.31 1027.58 1027.85 1028.31 1028.67 1028.25 1028.47 1028.29 1028.24 1028.01 1027.97 1028.04 1028.17 1028.18 1028.16 1028.14 1028.51
1010.96 1011.68 1012.21 1012.99 1012.90 1013.54 1014.20 1014.23 1014.48 1015.24 1015.59 1015.00 1015.43 1016.72 1018.21 1019.61 1020.27 1020.79 1021.42 1021.78 1022.22 1022.60 1023.03 1023.62 1024.31 1024.78 1025.14 1025.48 1025.69 1025.84 1026.03 1026.17 1026.18 1026.45 1026.40 1026.27 1026.59 1027.31 1027.93 1028.10 1028.38 1028.44 1028.36 1028.61 1029.17 1028.84 1028.81 1028.70 1028.74 1028.83 1028.62 1028.47 1028.32 1028.60
1012.07 1012.45 1013.01 1014.13 1014.74 1015.69 1016.68 1016.58 1016.79 1017.01 1016.82 1016.75 1017.53 1018.88 1019.93 1021.15 1021.89 1022.23 1022.32 1022.42 1022.59 1022.99 1023.58 1024.15 1024.65 1024.88 1025.25 1025.56 1026.08 1026.56 1026.94 1027.18 1027.30 1027.14 1026.69 1026.78 1027.16 1027.91 1028.20 1028.38 1028.51 1028.68 1028.71 1028.63 1028.60 1028.59 1029.03 1028.85 1028.88 1029.01 1028.96 1028.62 1028.36 1028.21
1012.39 1012.79 1013.59 1014.86 1016.31 1017.60 1017.73 1018.13 1018.00 1017.71 1017.44 1017.48 1018.18 1018.89 1020.02 1021.52 1022.91 1023.45 1023.43 1023.49 1023.77 1024.16 1024.48 1024.82 1025.15 1025.49 1025.74 1025.93 1026.06 1026.63 1026.93 1027.81 1028.36 1028.33 1028.16 1028.17 1028.28 1028.40 1028.70 1028.98 1028.94 1028.84 1028.83 1028.90 1028.90 1028.78 1028.68 1028.69 1028.52 1028.52 1028.52 1028.44 1028.43 1028.54
1012.80 1013.03 1013.71 1015.12 1017.12 1018.21 1018.08 1017.55 1017.65 1018.02 1018.39 1018.93 1019.45 1020.09 1020.61 1021.06 1022.30 1023.58 1024.56 1024.33 1024.27 1024.28 1024.84 1024.95 1025.33 1025.88 1026.44 1026.96 1027.31 1027.67 1027.91 1028.36 1028.67 1028.84 1028.76 1028.73 1028.83 1029.17 1029.23 1029.37 1029.57 1029.35 1029.25 1029.28 1029.15 1029.10 1029.06 1029.00 1028.83 1028.67 1028.62 1028.58 1028.56 1028.68
1013.18 1013.47 1013.84 1014.89 1016.40 1016.92 1017.46 1016.79 1017.04 1018.09 1018.47 1019.16 1020.03 1020.56 1021.05 1021.29 1022.55 1023.93 1025.23 1025.26 1024.94 1024.70 1025.28 1025.73 1026.33 1026.89 1027.47 1027.65 1027.90 1028.26 1028.55 1029.14 1029.76 1029.97 1030.15 1030.32 1030.42 1030.08 1029.68 1029.61 1029.64 1029.69 1029.65 1029.54 1029.35 1029.31 1029.24 1029.11 1029.00 1028.87 1028.89 1028.90 1028.92 1028.91
Thickness
5356 5360 5364 5368 5371 5374 5376 5377 5377 5376 5376 5375 5374 5371 5367 5363 5358 5349 5352 5351 5353 5357 5372 5383 5392 5402 5422 5411 5408 5423 5412 5409 5405 5425 5448 5474 5483 5494 5503 5513 5503 5494 5486 5489 5496 5496 5507 5547 5549 5540 5535 5539 5543 5544
5360 5365 5369 5372 5375 5377 5379 5380 5379 5378 5377 5376 5375 5373 5370 5366 5362 5354 5347 5349 5349 5350 5366 5372 5382 5392 5404 5410 5404 5411 5434 5421 5436 5442 5461 5473 5474 5488 5498 5498 5510 5492 5509 5511 5513 5522 5534 5531 5523 5525 5525 5527 5530 5532
5364 5368 5371 5374 5375 5377 5377 5377 5376 5374 5373 5373 5372 5372 5371 5369 5366 5359 5352 5351 5343 5343 5351 5367 5380 5388 5399 5406 5409 5406 5415 5429 5428 5450 5443 5456 5462 5487 5486 5498 5497 5515 5507 5509 5502 5524 5529 5516 5516 5516 5515 5517 5519 5522
5367 5370 5371 5373 5373 5374 5374 5374 5373 5372 5371 5371 5370 5370 5371 5370 5368 5360 5357 5357 5347 5344 5352 5384 5390 5389 5399 5405 5410 5413 5413 5413 5425 5428 5443 5454 5464 5483 5488 5495 5493 5509 5503 5515 5517 5514 5522 5520 5508 5500 5502 5507 5508 5509
5368 5369 5370 5371 5371 5370 5369 5368 5367 5368 5369 5368 5366 5368 5370 5369 5367 5360 5357 5357 5357 5372 5378 5386 5394 5404 5407 5404 5408 5405 5404 5405 5414 5418 5430 5450 5466 5470 5483 5484 5491 5504 5499 5503 5501 5491 5495 5499 5492 5487 5492 5491 5491 5493
5367 5368 5369 5368 5367 5367 5368 5363 5358 5361 5365 5365 5365 5369 5371 5369 5363 5357 5353 5352 5362 5366 5372 5389 5407 5406 5407 5406 5406 5405 5406 5407 5410 5410 5418 5451 5462 5462 5468 5477 5455 5467 5467 5462 5460 5461 5469 5476 5464 5460 5461 5468 5469 5471
5367 5368 5366 5365 5364 5366 5367 5360 5356 5359 5363 5364 5365 5370 5371 5366 5364 5366 5374 5379 5369 5366 5372 5386 5404 5415 5413 5408 5405 5406 5410 5406 5406 5410 5424 5447 5450 5457 5461 5464 5433 5438 5443 5444 5442 5446 5460 5452 5441 5436 5436 5440 5443 5440
5367 5366 5365 5363 5360 5363 5363 5361 5361 5361 5362 5362 5363 5363 5361 5360 5360 5369 5373 5377 5372 5368 5376 5390 5406 5405 5412 5409 5407 5406 5403 5403 5404 5408 5424 5444 5449 5444 5444 5412 5416 5418 5427 5430 5424 5425 5427 5426 5428 5430 5429 5428 5429 5421
5366 5366 5367 5368 5366 5365 5364 5364 5366 5366 5363 5359 5357 5357 5357 5361 5365 5367 5368 5371 5375 5377 5388 5394 5410 5410 5413 5411 5402 5404 5399 5405 5405 5410 5421 5437 5446 5417 5387 5396 5400 5397 5399 5403 5407 5415 5416 5413 5414 5414 5414 5412 5411 5403
5364 5366 5368 5371 5373 5371 5370 5367 5364 5361 5358 5355 5356 5356 5355 5367 5366 5365 5364 5367 5372 5381 5395 5401 5409 5403 5410 5409 5408 5402 5403 5412 5417 5415 5427 5421 5386 5369 5374 5379 5383 5383 5386 5388 5391 5395 5390 5390 5390 5390 5387 5383 5380 5377
5363 5364 5366 5368 5373 5371 5365 5362 5361 5360 5362 5365 5365 5362 5357 5363 5370 5375 5372 5383 5382 5385 5397 5401 5404 5403 5397 5402 5407 5412 5410 5415 5424 5417 5418 5416 5386 5364 5365 5367 5369 5370 5370 5371 5369 5370 5366 5365 5366 5368 5366 5360 5355 5353
5361 5362 5363 5362 5361 5361 5360 5358 5358 5365 5367 5375 5368 5359 5359 5362 5376 5384 5385 5384 5395 5393 5386 5393 5395 5392 5391 5389 5405 5396 5408 5408 5420 5400 5415 5400 5356 5357 5358 5356 5353 5353 5352 5352 5351 5349 5348 5346 5344 5343 5340 5335 5330 5326
5360 5361 5361 5360 5360 5361 5364 5364 5366 5366 5371 5373 5373 5356 5373 5368 5377 5394 5387 5393 5391 5382 5384 5383 5388 5387 5385 5391 5403 5406 5411 5403 5399 5405 5383 5359 5345 5339 5337 5339 5336 5332 5332 5333 5331 5329 5327 5323 5322 5320 5315 5311 5308 5305
5358 5359 5360 5360 5360 5361 5363 5365 5368 5370 5377 5369 5366 5351 5365 5366 5362 5364 5372 5374 5363 5370 5379 5382 5389 5391 5392 5392 5389 5395 5379 5391 5397 5401 5367 5339 5325 5323 5322 5320 5317 5312 5310 5309 5307 5304 5301 5299 5295 5292 5290 5286 5283 5280
5356 5358 5358 5357 5358 5360 5364 5366 5370 5374 5367 5355 5362 5355 5346 5341 5343 5345 5350 5362 5358 5364 5373 5387 5392 5390 5384 5381 5381 5383 5383 5381 5375 5365 5338 5321 5312 5309 5305 5302 5300 5297 5294 5292 5289 5285 5281 5278 5275 5271 5268 5264 5260 5257
5356 5358 5357 5357 5358 5361 5366 5373 5374 5368 5354 5344 5337 5347 5344 5356 5351 5352 5356 5359 5354 5361 5375 5393 5389 5385 5371 5375 5375 5366 5385 5372 5340 5320 5312 5305 5295 5291 5288 5286 5284 5282 5280 5275 5271 5266 5262 5258 5255 5250 5245 5242 5239 5237
5359 5361 5354 5359 5363 5366 5370 5371 5363 5350 5343 5338 5328 5329 5339 5341 5339 5341 5346 5349 5352 5368 5375 5387 5381 5363 5374 5368 5350 5338 5333 5317 5306 5296 5291 5286 5284 5280 5276 5273 5270 5267 5263 5257 5252 5247 5243 5239 5235 5232 5228 5223 5221 5219
5365 5359 5358 5361 5367 5368 5365 5363 5354 5346 5329 5329 5330 5326 5328 5332 5336 5337 5340 5346 5358 5366 5368 5354 5365 5356 5350 5349 5333 5304 5297 5291 5288 5285 5280 5275 5272 5269 5267 5263 5258 5254 5249 5244 5240 5236 5232 5228 5225 5220 5215 5211 5209 5207
5362 5365 5364 5365 5369 5371 5363 5353 5357 5339 5326 5325 5326 5328 5329 5330 5332 5334 5337 5342 5346 5352 5353 5349 5338 5330 5318 5313 5306 5299 5295 5291 5284 5276 5268 5263 5260 5256 5252 5247 5243 5239 5234 5230 5225 5219 5213 5210 5209 5207 5204 5202 5200 5195
5357 5359 5362 5365 5370 5370 5358 5350 5355 5349 5339 5329 5332 5334 5331 5329 5328 5328 5331 5338 5343 5342 5329 5320 5308 5304 5302 5299 5298 5292 5285 5282 5280 5274 5265 5256 5250 5245 5241 5239 5233 5225 5220 5213 5208 5204 5200 5194 5190 5188 5186 5184 5181 5176
5358 5358 5362 5369 5369 5366 5357 5353 5347 5343 5337 5333 5336 5338 5330 5331 5331 5330 5332 5336 5331 5320 5305 5295 5288 5283 5281 5283 5284 5281 5277 5276 5273 5270 5258 5247 5238 5234 5227 5220 5214 5208 5203 5196 5189 5181 5179 5175 5169 5165 5161 5157 5153 5149
5361 5361 5369 5370 5365 5358 5352 5353 5351 5348 5344 5340 5338 5340 5337 5335 5332 5324 5329 5321 5301 5291 5294 5289 5285 5282 5276 5270 5266 5262 5257 5254 5249 5243 5237 5231 5227 5219 5208 5200 5194 5185 5178 5173 5168 5162 5155 5151 5147 5144 5140 5137 5135 5132
5359 5366 5368 5366 5359 5353 5337 5346 5350 5354 5348 5342 5344 5339 5335 5332 5326 5330 5317 5301 5284 5282 5282 5279 5275 5271 5265 5259 5256 5251 5248 5245 5239 5231 5223 5216 5208 5198 5189 5181 5175 5168 5161 5153 5148 5141 5133 5126 5124 5124 5121 5120 5117 5114
5356 5351 5355 5361 5359 5344 5346 5350 5357 5356 5351 5348 5344 5335 5332 5331 5325 5326 5310 5296 5283 5280 5276 5273 5272 5268 5263 5259 5254 5245 5239 5234 5226 5216 5208 5202 5191 5178 5168 5159 5150 5143 5140 5136 5131 5125 5119 5113 5108 5109 5106 5105 5104 5105
5362 5336 5350 5350 5356 5356 5353 5351 5351 5353 5348 5344 5338 5335 5327 5329 5329 5321 5311 5291 5283 5280 5275 5272 5270 5269 5264 5252 5242 5230 5222 5221 5215 5204 5191 5181 5171 5161 5151 5141 5132 5126 5124 5123 5118 5113 5107 5103 5101 5099 5097 5097 5095 5093
5343 5330 5349 5356 5356 5365 5364 5358 5355 5353 5349 5339 5329 5325 5328 5335 5329 5314 5307 5294 5283 5275 5268 5266 5263 5257 5250 5243 5234 5223 5210 5202 5197 5190 5172 5162 5154 5148 5141 5133 5129 5121 5112 5111 5109 5106 5100 5096 5093 5089 5088 5084 5079 5084
5344 5338 5335 5335 5352 5355 5354 5352 5359 5356 5349 5339 5334 5331 5337 5330 5313 5294 5286 5283 5278 5268 5263 5257 5253 5249 5239 5225 5212 5202 5193 5184 5177 5167 5154 5144 5135 5129 5126 5123 5118 5111 5103 5100 5099 5098 5096 5090 5088 5085 5084 5083 5081 5079
5327 5329 5332 5324 5330 5340 5341 5343 5341 5336 5334 5331 5337 5323 5324 5317 5300 5284 5277 5267 5262 5255 5248 5242 5236 5229 5220 5208 5198 5188 5177 5166 5156 5148 5140 5132 5124 5117 5110 5105 5099 5094 5093 5089 5090 5087 5088 5087 5085 5082 5081 5080 5079 5075
5321 5320 5316 5301 5316 5313 5309 5318 5319 5308 5307 5320 5319 5308 5289 5276 5271 5266 5260 5255 5249 5243 5235 5226 5217 5208 5200 5192 5185 5178 5169 5161 5154 5142 5137 5135 5126 5114 5104 5100 5095 5091 5089 5086 5080 5079 5078 5077 5076 5075 5075 5073 5073 5069
5313 5319 5312 5301 5301 5299 5289 5294 5291 5289 5294 5298 5290 5277 5269 5259 5254 5251 5249 5246 5242 5235 5226 5217 5208 5202 5193 5185 5174 5163 5153 5143 5135 5131 5131 5124 5115 5103 5097 5092 5088 5083 5081 5080 5079 5077 5071 5071 5069 5068 5067 5066 5066 5066
5317 5317 5311 5303 5291 5281 5282 5279 5281 5286 5289 5292 5287 5279 5267 5253 5241 5235 5235 5231 5225 5218 5211 5204 5197 5189 5182 5175 5169 5157 5148 5131 5119 5113 5109 5104 5099 5094 5088 5082 5079 5076 5074 5072 5070 5069 5068 5066 5066 5064 5062 5061 5058 5055
5312 5312 5307 5295 5281 5274 5277 5288 5287 5284 5281 5276 5270 5264 5261 5260 5249 5233 5219 5218 5216 5212 5202 5198 5189 5179 5169 5158 5149 5138 5130 5120 5111 5104 5100 5095 5091 5084 5080 5075 5071 5069 5066 5064 5062 5060 5058 5057 5056 5056 5055 5053 5051 5048
5308 5309 5308 5299 5286 5287 5280 5293 5291 5279 5279 5273 5261 5257 5253 5256 5243 5224 5207 5204 5204 5202 5192 5184 5173 5164 5153 5146 5137 5127 5119 5109 5100 5094 5088 5083 5079 5076 5073 5070 5067 5063 5061 5059 5058 5055 5053 5051 5050 5049 5047 5044 5042 5040